sat.trackr.live / text

‹ back to catalog

GALAXY 28 (G-28)

NORAD 28702 · 2005-022A

PAYLOAD ACTIVE UNKNOWN

§ Identity

Operator
Country
ITSO
Launch date
2005-06-23
Launch site
SEAL
Launch vehicle
Mass (kg)
RCS (m²)
16.80

Purposes: comms

External: N2YO · Heavens-Above · Gunter

§ Orbital elements

Epoch: 2026-09-19T20:15:47.379168Z

Period
1,436.12 min
Inclination
3.5360°
Eccentricity
0.0001785
Mean motion
1.00270303 rev/d
Perigee alt
35,779.5 km
Apogee alt
35,794.5 km
Semi-major
42,165.1 km
B*
0.0000e+0
RAAN
77.6968°
Arg perigee
104.6904°
Mean anomaly
93.2175°
Rev number
5,292

§ Raw data

GALAXY 28 (G-28)1 28702U 05022A   26262.84429837 -.00000204  00000+0  00000+0 0  99962 28702   3.5360  77.6968 0001785 104.6904  93.2175  1.00270303 52927

JSON: /api/v1/satellites/28702 · /tle

For live sub-satellite position, see the globe view (requires WebGL).

§ Visibility from observer

Set your observer location to see the next 7 days of passes ≥ 10°. The values pass through the URL so the page stays shareable.

No JS? Fill the form by hand. The geolocation button needs JavaScript.